Location: ?????????
(54.7630°N, 39.4991°E)
Time: 21:36:08
(UTC+00:00)

Cosmos 1455 Rocket - Pass Details

Date: 14 April 2026
Orbit: 598 x 622 km, 82.5° (Epoch: 16 May)

Event Time Altitude Azimuth Distance (km) Brightness Sun altitude
Exits shadow 22:12:44 50° 292° (WNW) 794 3.5 -24.7°
Drops below altitude 10° 22:16:59 10° 4° (N) 2,006 6.7 -24.5°
Sets 22:19:17 0° 9° (N) 2,918 7.9 -24.5°
